Location: Dal�� Lhota
(48.7500°N, 14.0167°E)
Time: 20:31:26
(UTC+00:00)

Transit 2A - Pass Details

Date: 31 July 2021
Orbit: 594 x 964 km, 66.7° (Epoch: 27 September)

Event Time Altitude Azimuth Distance (km) Brightness Sun altitude
Rises 09:17:37 0° 302° (WNW) 2,981 8.7 51.9°
Reaches altitude 10° 09:22:37 10° 349° (N) 2,177 8.2 52.5°
Maximum altitude 09:23:01 10° 354° (N) 2,180 8.2 52.5°
Drops below altitude 10° 09:23:26 10° 358° (N) 2,196 8.2 52.5°
Sets 09:28:49 0° 44° (NE) 3,253 9.2 53.2°
